Regional Weather Roundup
Issued by NWS

Home | Current Version | Previous Version | Graphics & Text | Print | Product List | Glossary On
Versions: 1 2 3 4 5 6 7 8 9 10 11 12 13 14 15 16 17 18 19 20 21 22 23 24 25 26 27 28 29 30 31 32 33 34 35 36 37 38 39 40 41 42 43 44 45 46 47 48 49 50
000
ASUS43 KIND 231709
RWRIN

WEATHER ROUNDUP FOR INDIANA
NATIONAL WEATHER SERVICE INDIANAPOLIS IN
100 PM EDT SAT SEP 23 2017

NOTE: "FAIR" INDICATES FEW OR NO CLOUDS BELOW 12,000 FEET WITH NO
SIGNIFICANT WEATHER AND/OR OBSTRUCTIONS TO VISIBILITY.

* - STATION DOES NOT REPORT WEATHER SUCH AS PRECIPITATION OR FOG.

+ - STATION NOT QUALITY CONTROLLED BY THE NATIONAL WEATHER SERVICE.
    USE DATA WITH CAUTION...ESPECIALLY DEWPOINT AND RELATIVE
    HUMIDITY OBSERVATIONS.

INZ001>003-010>013-019-020-231800-
NORTHWEST INDIANA

CITY           SKY/WX    TMP DP  RH WIND       PRES   REMARKS
GARY /AIRPORT/ SUNNY     91  64  40 SE5       30.11F
KNOX *+        SUNNY     88  66  48 S5        30.12S
LA PORTE +     SUNNY     88  68  52 SE3       30.13F
MICHIGAN CITY+ SUNNY     88  68  51 CALM      30.12S
MONTICELLO +   SUNNY     87  66  49 SE3       30.11F
RENSSELAER +   SUNNY     88  54  31 CALM      30.12S
VALPARAISO     SUNNY     91  69  48 CALM      30.12F HX  96

$$

LMZ046-743>745-231800-
SOUTHERN LAKE MICHIGAN

STATION/POSITION TIME  TEMP    WIND        PRES    WAVE
                       AIR SEA DIR/SP/G            HT
                 (UTC) (F)     (DEG/KT/KT) (MB)    (FT)
BURNS HARBOR     1640   79      50/  5/  7 1020.0S
MICHIGAN CITY    1640   77      10/  6/  6   N/A
5NW MICH CITY    1700   76 75   40/  4/  4   N/A     0

$$

INZ004-005-014>016-021>024-231800-
NORTH CENTRAL INDIANA

CITY           SKY/WX    TMP DP  RH WIND       PRES   REMARKS
ELKHART        SUNNY     86  66  51 MISG      30.13F
GOSHEN         SUNNY     86  66  51 W5        30.13F
LOGANSPORT +   SUNNY     86  64  48 CALM      30.13F
PERU/GRISSOM   SUNNY     87  67  50 CALM      30.12F
SOUTH BEND     SUNNY     87  66  49 VRB3      30.13F
WARSAW +       SUNNY     86  68  54 CALM      30.14S

$$

INZ006>009-017-018-025>027-231800-
NORTHEAST INDIANA

CITY           SKY/WX    TMP DP  RH WIND       PRES   REMARKS
AUBURN +       SUNNY     86  63  45 CALM      30.15S
FORT WAYNE     MOSUNNY   87  69  54 NE3       30.15S
HUNTINGTON +   SUNNY     86  67  52 CALM      30.14S
KENDALLVILLE + SUNNY     86  67  53 CALM      30.16R

$$

INZ028-029-035-036-043>045-051>053-231800-
WEST CENTRAL INDIANA

CITY           SKY/WX    TMP DP  RH WIND       PRES   REMARKS
CRAWFORDSVL +  PTSUNNY   86  64  48 NW3       30.12F
GREENCASTLE +  SUNNY     84  63  48 E3        30.13F
LAFAYETTE      SUNNY     87  69  54 CALM      30.11F
TERRE HAUTE    SUNNY     88  65  46 E5        30.11F

$$

INZ030>032-037>040-046>048-054>057-064-065-231800-
CENTRAL INDIANA

CITY           SKY/WX    TMP DP  RH WIND       PRES   REMARKS
ANDERSON       SUNNY     84  66  54 CALM      30.14F
CP ATTERBURY + SUNNY     86  63  45 N3        30.13F
COLUMBUS       SUNNY     86  55  35 CALM      30.12F
FISHERS *+     SUNNY     88  72  58 CALM      30.12F
FRANKFORT +    CLOUDY    89  67  48 CALM      30.14S
GREENWOOD *+   SUNNY     89  68  50 NE3       30.14F
INDIANAPOLIS   MOSUNNY   87  67  51 CALM      30.12F
-EAGLE CREEK   MOSUNNY   88  65  46 VRB3      30.11F
KOKOMO +       SUNNY     89  67  47 CALM      30.14F
MT COMFORT *+  SUNNY     86  66  51 SE5       30.14S
SHELBYVILLE    SUNNY     88  62  41 S5        30.12F
ZIONSVILLE +   SUNNY     84  67  55 CALM      30.14S

$$

INZ033-034-041-042-049-050-058-059-231800-
EAST CENTRAL INDIANA

CITY           SKY/WX    TMP DP  RH WIND       PRES   REMARKS
MUNCIE         SUNNY     87  64  46 CALM      30.14S
RICHMOND +     SUNNY     86  63  45 E3        30.16S

$$

INZ060-061-067>069-081>083-085>088-231800-
SOUTHWEST INDIANA

CITY           SKY/WX    TMP DP  RH WIND       PRES   REMARKS
EVANSVILLE     SUNNY     85  62  46 E10       30.09F
HUNTINGBURG +  MOSUNNY   84  67  56 SE10      30.10
WASHINGTON +   SUNNY     88  60  38 NE8       30.10F

$$

INZ062-063-066-070>080-084-089>092-231800-
SOUTH CENTRAL AND SOUTHEAST INDIANA

CITY           SKY/WX    TMP DP  RH WIND       PRES   REMARKS
BEDFORD +      SUNNY     86  61  42 CALM      30.11F
BLOOMINGTON    SUNNY     87  62  43 NE7       30.12F
MADISON *+     SUNNY     86  63  45 E3        30.14F
NORTH VERNON + SUNNY     84  64  51 E5        30.13F
SEYMOUR +      SUNNY     88  64  45 CALM      30.11F

$$




USA.gov is the U.S. government's official web portal to all federal, state and local government web resources and services.